This demonstration page uses our WeatherBlox Daily Observations layout. Learn more.

Hourly Observations for June 5, 2019

Temp ( °F °C ) Dew Point ( °F °C ) Humidity (%) Winds ( mph kmh ) Pressure ( in mb ) Visibility ( mi km ) Precip ( " mm )
12:15 am 00:15 Clear 71 21.7 58 14.6 64 64 NNW 9 15 29.74 1007 10 16.09344 0 0
12:35 am 00:35 Clear 69 20.6 58 14.2 67 67 N 9 15 29.74 1007 10 16.09344 0 0
12:55 am 00:55 Clear 68 20 57 13.7 67 67 NE 9 15 29.74 1007 10 16.09344 0 0
1:15 am 01:15 Clear 68 20.2 56 13.5 66 66 NE 12 19 29.74 1007 10 16.09344 0 0
1:35 am 01:35 Clear 68 20.1 56 13.4 66 66 N 8 13 29.77 1008 10 16.09344 0 0
1:55 am 01:55 Clear 68 20.1 56 13.1 64 64 N 5 7 29.77 1008 10 16.09344 0 0
2:15 am 02:15 Clear 66 18.7 56 13.3 71 71 NNW 3 6 29.77 1008 10 16.09344 0 0
2:35 am 02:35 Partly Cloudy 64 17.8 56 13.5 76 76 W 10 17 29.83 1010 10 16.09344 0 0
2:55 am 02:55 Partly Cloudy 65 18.6 56 13.3 71 71 W 7 11 29.8 1009 10 16.09344 0 0
3:15 am 03:15 Partly Cloudy 65 18.2 56 13.1 72 72 W 7 11 29.83 1010 10 16.09344 0 0
3:35 am 03:35 Partly Cloudy 65 18.3 55 12.9 71 71 W 6 9 29.8 1009 10 16.09344 0 0
3:55 am 03:55 Clear 65 18.1 55 12.9 72 72 WNW 6 9 29.83 1010 10 16.09344 0 0
4:15 am 04:15 Clear 64 17.9 56 13.1 74 74 WNW 7 11 29.83 1010 10 16.09344 0 0
4:35 am 04:35 Clear 63 17.2 56 13.3 78 78 NW 8 13 29.83 1010 10 16.09344 0 0
4:55 am 04:55 Clear 65 18.4 56 13.3 72 72 NW 10 17 29.8 1009 10 16.09344 0 0
5:15 am 05:15 Clear 65 18.2 56 13.5 74 74 NW 10 17 29.83 1010 10 16.09344 0 0
5:35 am 05:35 Clear 64 17.8 56 13.4 76 76 NW 9 15 29.83 1010 10 16.09344 0 0
5:55 am 05:55 Clear 63 17.2 56 13.5 79 79 NW 10 17 29.83 1010 10 16.09344 0 0
6:15 am 06:15 Sunny 63 17.1 56 13.5 80 80 NW 8 13 29.83 1010 10 16.09344 0 0
6:35 am 06:35 Sunny 63 17.2 56 13.5 79 79 NW 9 15 29.83 1010 10 16.09344 0 0
6:55 am 06:55 Sunny 64 17.5 56 13.6 78 78 NW 9 15 29.85 1011 10 16.09344 0 0
7:15 am 07:15 Sunny 65 18.2 57 13.7 75 75 NW 9 15 29.85 1011 10 16.09344 0 0
7:35 am 07:35 Sunny 66 18.7 57 13.9 74 74 NW 8 13 29.83 1010 10 16.09344 0 0
7:55 am 07:55 Sunny 66 19.1 58 14.2 73 73 NW 8 13 29.83 1010 10 16.09344 0 0
8:15 am 08:15 Sunny 68 19.8 58 14.3 71 71 NNW 9 15 29.83 1010 10 16.09344 0 0
8:35 am 08:35 Sunny 70 20.9 59 15 69 69 N 8 13 29.83 1010 10 16.09344 0 0
8:55 am 08:55 Sunny 71 21.5 60 15.3 68 68 N 8 13 29.83 1010 10 16.09344 0 0
9:15 am 09:15 undefined N/A N/A N/A undefined N/A N/A N/A 0 0
9:35 am 09:35 Sunny 74 23.1 60 15.6 63 63 NNW 9 15 29.8 1009 10 16.09344 0.03 0.762
9:55 am 09:55 Sunny 75 24 60 15.8 60 60 N 9 15 29.8 1009 10 16.09344 0.03 0.762
10:15 am 10:15 Sunny 77 25 61 15.9 57 57 N 10 17 29.8 1009 10 16.09344 0 0
10:35 am 10:35 Sunny 77 25 60 15.6 56 56 N 12 19 29.8 1009 10 16.09344 0 0
10:55 am 10:55 Sunny 78 25.7 61 16.3 56 56 N 10 17 29.8 1009 10 16.09344 0 0
11:15 am 11:15 Sunny 80 26.4 62 16.7 55 55 N 13 20 29.77 1008 10 16.09344 0 0
11:35 am 11:35 Sunny 81 27.4 61 16.3 51 51 N 17 28 29.77 1008 10 16.09344 0 0
11:55 am 11:55 Sunny 81 27.1 61 16.3 52 52 NNE 16 26 29.77 1008 10 16.09344 0 0
12:15 pm 12:15 Sunny 82 27.6 62 16.9 52 52 NNE 13 20 29.77 1008 10 16.09344 0 0
12:35 pm 12:35 Mostly Cloudy 82 27.8 61 16.2 49 49 NNE 15 24 29.77 1008 10 16.09344 0 0
12:55 pm 12:55 Cloudy 82 27.9 60 15.3 46 46 NNE 18 30 29.77 1008 10 16.09344 0 0
1:15 pm 13:15 Mostly Cloudy 82 27.5 56 13.2 41 41 NNE 15 24 29.77 1008 10 16.09344 0 0
1:35 pm 13:35 Partly Cloudy 84 28.9 54 12.3 36 36 N 12 19 29.77 1008 10 16.09344 0 0
1:55 pm 13:55 Partly Cloudy 84 29.1 57 14.1 40 40 NNE 16 26 29.77 1008 10 16.09344 0 0
2:15 pm 14:15 Sunny 84 29 56 13.4 38 38 NNE 16 26 29.77 1008 10 16.09344 0 0
2:35 pm 14:35 Sunny 85 29.4 57 13.7 38 38 N 16 26 29.77 1008 10 16.09344 0 0
2:55 pm 14:55 Sunny 85 29.2 55 12.5 36 36 N 8 13 29.77 1008 10 16.09344 0 0
3:15 pm 15:15 Sunny 85 29.3 55 12.7 36 36 NE 9 15 29.77 1008 10 16.09344 0 0
3:35 pm 15:35 Partly Cloudy 84 29 54 12 35 35 NNW 12 19 29.77 1008 10 16.09344 0 0
3:55 pm 15:55 Partly Cloudy 85 29.3 56 13.2 37 37 ENE 10 17 29.77 1008 10 16.09344 0 0
4:15 pm 16:15 Partly Cloudy 83 28.2 57 13.7 41 41 NNE 12 19 29.77 1008 10 16.09344 0 0
4:35 pm 16:35 Partly Cloudy 83 28.3 56 13.1 39 39 NE 6 9 29.74 1007 10 16.09344 0 0
4:55 pm 16:55 Partly Cloudy 85 29.3 56 13.5 38 38 NNE 9 15 29.74 1007 10 16.09344 0 0
5:15 pm 17:15 Partly Cloudy 82 28 56 13.3 40 40 NNE 7 11 29.74 1007 10 16.09344 0 0
5:35 pm 17:35 Sunny 84 28.8 56 13.2 38 38 N 7 11 29.74 1007 10 16.09344 0 0
5:55 pm 17:55 Partly Cloudy 83 28.2 56 13.6 41 41 N 5 7 29.74 1007 10 16.09344 0 0
6:15 pm 18:15 Partly Cloudy 83 28.3 58 14.4 43 43 NNE 12 19 29.74 1007 10 16.09344 0 0
6:35 pm 18:35 Sunny 81 27.3 58 14.4 45 45 NNE 8 13 29.74 1007 10 16.09344 0 0
6:55 pm 18:55 Sunny 83 28.2 57 13.8 41 41 NNE 13 20 29.74 1007 10 16.09344 0 0
7:15 pm 19:15 Sunny 83 28.3 57 13.8 41 41 N 12 19 29.74 1007 10 16.09344 0 0
7:35 pm 19:35 Sunny 82 27.6 57 13.9 43 43 NNE 10 17 29.74 1007 10 16.09344 0 0
7:55 pm 19:55 Sunny with Nearby Thunderstorms 81 27.4 57 13.7 43 43 N 9 15 29.74 1007 10 16.09344 0 0
8:15 pm 20:15 Sunny 81 27.2 57 14.1 45 45 N 9 15 29.74 1007 10 16.09344 0 0
8:35 pm 20:35 Sunny 79 26.1 58 14.7 50 50 N 7 11 29.74 1007 10 16.09344 0 0
8:55 pm 20:55 Sunny 77 25.1 60 15.4 55 55 N 8 13 29.77 1008 10 16.09344 0 0
9:15 pm 21:15 Clear 75 24.1 61 15.9 60 60 N 8 13 29.77 1008 10 16.09344 0 0
9:35 pm 21:35 Clear 73 23 61 16.2 66 66 N 7 11 29.77 1008 10 16.09344 0 0
9:55 pm 21:55 Clear 72 22.2 62 16.6 71 71 N 6 9 29.8 1009 10 16.09344 0 0
10:15 pm 22:15 Clear 71 21.5 62 16.8 75 75 N 6 9 29.83 1010 10 16.09344 0 0
10:35 pm 22:35 Clear 70 21.1 62 16.9 77 77 N 7 11 29.83 1010 10 16.09344 0 0
10:55 pm 22:55 Clear 69 20.8 63 17 79 79 N 7 11 29.85 1011 10 16.09344 0 0
11:15 pm 23:15 Clear 70 21.1 62 16.6 76 76 NNE 8 13 29.85 1011 10 16.09344 0 0
11:35 pm 23:35 Clear 69 20.7 62 16.5 77 77 NNE 8 13 29.83 1010 10 16.09344 0 0
11:55 pm 23:55 Clear 69 20.3 61 16.3 78 78 NNE 8 13 29.83 1010 10 16.09344 0 0

Powered by AerisWeather